Time,TemperatureF,DewpointF,PressureIn,WindDirection,WindDirectionDegrees,WindSpeedMPH,WindSpeedGustMPH,Humidity,HourlyPrecipIn,Conditions,Clouds,dailyrainin,SoftwareType,DateUTC
2013-03-19 00:04:00,28.0,22.3,30.23,SSW,202,7.0,10.0,79,0.00,,,0.00,Weather View 32 v70,2013-03-19 04:04:00,
2013-03-19 00:10:00,28.0,22.3,30.23,South,180,6.0,10.0,79,0.00,,,0.00,Weather View 32 v70,2013-03-19 04:10:00,
2013-03-19 00:15:00,28.0,22.6,30.23,SSE,158,6.0,10.0,80,0.00,,,0.00,Weather View 32 v70,2013-03-19 04:15:00,
2013-03-19 00:19:00,28.0,23.5,30.23,SSW,202,11.0,12.0,83,0.00,,,0.00,Weather View 32 v70,2013-03-19 04:19:00,
2013-03-19 00:29:00,27.0,23.9,30.23,SW,225,3.0,13.0,88,0.00,,,0.00,Weather View 32 v70,2013-03-19 04:29:00,
2013-03-19 00:35:00,26.0,24.0,30.22,South,180,11.0,13.0,92,0.00,,,0.00,Weather View 32 v70,2013-03-19 04:35:00,
2013-03-19 00:42:00,26.0,24.5,30.22,South,180,6.0,13.0,94,0.00,,,0.00,Weather View 32 v70,2013-03-19 04:42:00,
2013-03-19 00:50:00,26.0,25.3,30.22,South,180,6.0,13.0,97,0.00,,,0.00,Weather View 32 v70,2013-03-19 04:50:00,
2013-03-19 00:59:00,26.0,25.8,30.21,SSE,158,2.0,13.0,99,0.00,,,0.00,Weather View 32 v70,2013-03-19 04:59:00,
2013-03-19 01:09:00,26.0,26.0,30.20,WNW,292,2.0,13.0,100,0.00,,,0.00,Weather View 32 v70,2013-03-19 05:09:00,
2013-03-19 01:19:00,26.0,26.0,30.20,South,180,6.0,13.0,100,0.00,,,0.00,Weather View 32 v70,2013-03-19 05:19:00,
2013-03-19 01:29:00,26.0,26.0,30.19,SE,135,1.0,13.0,100,0.00,,,0.00,Weather View 32 v70,2013-03-19 05:29:00,
2013-03-19 01:39:00,26.0,26.0,30.19,SW,225,2.0,10.0,100,0.00,,,0.00,Weather View 32 v70,2013-03-19 05:39:00,
2013-03-19 01:44:00,26.0,26.0,30.19,South,180,2.0,10.0,100,0.00,,,0.00,Weather View 32 v70,2013-03-19 05:44:00,
2013-03-19 01:54:00,26.0,26.0,30.19,SSW,202,0.0,10.0,100,0.00,,,0.00,Weather View 32 v70,2013-03-19 05:54:00,
2013-03-19 02:04:00,26.0,26.0,30.18,SE,135,1.0,10.0,100,0.00,,,0.00,Weather View 32 v70,2013-03-19 06:04:00,
2013-03-19 02:14:00,26.0,26.0,30.18,South,180,0.0,9.0,100,0.00,,,0.00,Weather View 32 v70,2013-03-19 06:14:00,
2013-03-19 02:24:00,26.0,26.0,30.17,SSW,202,0.0,7.0,100,0.00,,,0.00,Weather View 32 v70,2013-03-19 06:24:00,
2013-03-19 02:34:00,26.0,26.0,30.16,SSW,202,0.0,6.0,100,0.00,,,0.00,Weather View 32 v70,2013-03-19 06:34:00,
2013-03-19 02:40:00,26.0,26.0,30.16,SW,225,0.0,5.0,100,0.00,,,0.00,Weather View 32 v70,2013-03-19 06:40:00,
2013-03-19 02:50:00,26.0,26.0,30.15,SSW,202,0.0,1.0,100,0.00,,,0.00,Weather View 32 v70,2013-03-19 06:50:00,
2013-03-19 02:59:00,26.0,26.0,30.15,South,180,0.0,1.0,100,0.00,,,0.00,Weather View 32 v70,2013-03-19 06:59:00,
2013-03-19 03:10:00,26.0,26.0,30.14,West,270,0.0,1.0,100,0.00,,,0.00,Weather View 32 v70,2013-03-19 07:10:00,
2013-03-19 03:19:00,26.0,26.0,30.13,WSW,248,0.0,1.0,100,0.00,,,0.00,Weather View 32 v70,2013-03-19 07:19:00,
2013-03-19 03:30:00,26.0,26.0,30.13,WSW,248,0.0,1.0,100,0.00,,,0.00,Weather View 32 v70,2013-03-19 07:30:00,
2013-03-19 03:39:00,26.0,26.0,30.13,WSW,248,0.0,1.0,100,0.00,,,0.00,Weather View 32 v70,2013-03-19 07:39:00,
2013-03-19 03:44:00,26.0,26.0,30.14,SW,225,1.0,1.0,100,0.00,,,0.00,Weather View 32 v70,2013-03-19 07:44:00,
2013-03-19 03:54:00,26.0,26.0,30.12,SSW,202,0.0,3.0,100,0.00,,,0.00,Weather View 32 v70,2013-03-19 07:54:00,
2013-03-19 04:00:00,26.0,26.0,30.12,WSW,248,0.0,6.0,100,0.00,,,0.00,Weather View 32 v70,2013-03-19 08:00:00,
2013-03-19 04:09:00,26.0,26.0,30.12,SSE,158,1.0,6.0,100,0.00,,,0.00,Weather View 32 v70,2013-03-19 08:09:00,
2013-03-19 04:19:00,26.0,26.0,30.12,SSW,202,1.0,6.0,100,0.00,,,0.00,Weather View 32 v70,2013-03-19 08:19:00,
2013-03-19 04:25:00,26.0,26.0,30.12,SSE,158,0.0,6.0,100,0.00,,,0.00,Weather View 32 v70,2013-03-19 08:25:00,
2013-03-19 04:34:00,26.0,26.0,30.12,SSE,158,1.0,6.0,100,0.00,,,0.00,Weather View 32 v70,2013-03-19 08:34:00,
2013-03-19 04:39:00,26.0,26.0,30.12,SW,225,0.0,6.0,100,0.00,,,0.00,Weather View 32 v70,2013-03-19 08:39:00,
2013-03-19 04:49:00,26.0,26.0,30.12,SE,135,0.0,6.0,100,0.00,,,0.00,Weather View 32 v70,2013-03-19 08:49:00,
2013-03-19 04:54:00,26.0,26.0,30.11,SSE,158,0.0,6.0,100,0.00,,,0.00,Weather View 32 v70,2013-03-19 08:54:00,
2013-03-19 05:04:00,26.0,26.0,30.11,SE,135,1.0,3.0,100,0.00,,,0.00,Weather View 32 v70,2013-03-19 09:04:00,
2013-03-19 05:10:00,26.0,26.0,30.11,SE,135,1.0,3.0,100,0.00,,,0.00,Weather View 32 v70,2013-03-19 09:10:00,
2013-03-19 05:19:00,26.0,26.0,30.09,SW,225,2.0,3.0,100,0.00,,,0.00,Weather View 32 v70,2013-03-19 09:19:00,
2013-03-19 05:24:00,26.0,26.0,30.10,SE,135,1.0,3.0,100,0.00,,,0.00,Weather View 32 v70,2013-03-19 09:24:00,
2013-03-19 05:35:00,26.0,26.0,30.10,South,180,0.0,3.0,100,0.00,,,0.00,Weather View 32 v70,2013-03-19 09:35:00,
2013-03-19 05:45:00,26.0,26.0,30.09,SSW,202,0.0,3.0,100,0.00,,,0.00,Weather View 32 v70,2013-03-19 09:45:00,
2013-03-19 05:54:00,26.0,26.0,30.10,SE,135,0.0,3.0,100,0.00,,,0.00,Weather View 32 v70,2013-03-19 09:54:00,
2013-03-19 06:04:00,26.0,26.0,30.09,SSW,202,0.0,3.0,100,0.00,,,0.00,Weather View 32 v70,2013-03-19 10:04:00,
2013-03-19 06:09:00,26.0,26.0,30.09,SSE,158,0.0,3.0,100,0.00,,,0.00,Weather View 32 v70,2013-03-19 10:09:00,
2013-03-19 06:14:00,26.0,26.0,30.09,WSW,248,0.0,3.0,100,0.00,,,0.00,Weather View 32 v70,2013-03-19 10:14:00,
2013-03-19 06:24:00,26.0,26.0,30.09,WNW,292,0.0,3.0,100,0.00,,,0.00,Weather View 32 v70,2013-03-19 10:24:00,
2013-03-19 06:29:00,26.0,26.0,30.09,SSE,158,0.0,3.0,100,0.00,,,0.00,Weather View 32 v70,2013-03-19 10:29:00,
2013-03-19 06:39:00,26.0,26.0,30.09,SW,225,0.0,3.0,100,0.00,,,0.00,Weather View 32 v70,2013-03-19 10:39:00,
2013-03-19 06:44:00,26.0,26.0,30.09,SSW,202,0.0,1.0,100,0.00,,,0.00,Weather View 32 v70,2013-03-19 10:44:00,
2013-03-19 06:54:00,26.0,26.0,30.08,WSW,248,0.0,1.0,100,0.00,,,0.00,Weather View 32 v70,2013-03-19 10:54:00,
2013-03-19 06:59:00,26.0,26.0,30.08,SSW,202,0.0,0.0,100,0.00,,,0.00,Weather View 32 v70,2013-03-19 10:59:00,
2013-03-19 07:04:00,26.0,26.0,30.08,South,180,0.0,0.0,100,0.00,,,0.00,Weather View 32 v70,2013-03-19 11:04:00,
2013-03-19 07:14:00,27.0,27.0,30.07,South,180,0.0,0.0,100,0.00,,,0.00,Weather View 32 v70,2013-03-19 11:14:00,
2013-03-19 07:19:00,27.0,27.0,30.07,SW,225,0.0,0.0,100,0.00,,,0.00,Weather View 32 v70,2013-03-19 11:19:00,
2013-03-19 07:29:00,27.0,27.0,30.06,SE,135,0.0,0.0,100,0.00,,,0.00,Weather View 32 v70,2013-03-19 11:29:00,
2013-03-19 07:40:00,27.0,27.0,30.06,SSE,158,0.0,0.0,100,0.00,,,0.00,Weather View 32 v70,2013-03-19 11:40:00,
2013-03-19 07:45:00,27.0,27.0,30.06,WSW,248,0.0,0.0,100,0.00,,,0.00,Weather View 32 v70,2013-03-19 11:45:00,
2013-03-19 07:55:00,27.0,27.0,30.05,SE,135,0.0,0.0,100,0.00,,,0.00,Weather View 32 v70,2013-03-19 11:55:00,
2013-03-19 08:04:00,27.0,27.0,30.05,West,270,0.0,0.0,100,0.00,,,0.00,Weather View 32 v70,2013-03-19 12:04:00,
2013-03-19 08:14:00,27.0,27.0,30.04,SW,225,0.0,0.0,100,0.00,,,0.00,Weather View 32 v70,2013-03-19 12:14:00,
2013-03-19 08:24:00,28.0,28.0,30.04,SSE,158,0.0,0.0,100,0.00,,,0.00,Weather View 32 v70,2013-03-19 12:24:00,
2013-03-19 08:34:00,28.0,28.0,30.04,SSE,158,0.0,0.0,100,0.00,,,0.00,Weather View 32 v70,2013-03-19 12:34:00,
2013-03-19 08:45:00,28.0,28.0,30.04,South,180,0.0,0.0,100,0.00,,,0.00,Weather View 32 v70,2013-03-19 12:45:00,
2013-03-19 08:54:00,28.0,28.0,30.03,South,180,0.0,0.0,100,0.00,,,0.00,Weather View 32 v70,2013-03-19 12:54:00,
2013-03-19 09:00:00,28.0,28.0,30.03,SE,135,0.0,0.0,100,0.00,,,0.00,Weather View 32 v70,2013-03-19 13:00:00,
2013-03-19 09:09:00,28.0,28.0,30.02,WSW,248,0.0,0.0,100,0.00,,,0.00,Weather View 32 v70,2013-03-19 13:09:00,
2013-03-19 09:19:00,29.0,29.0,30.02,South,180,0.0,0.0,100,0.00,,,0.00,Weather View 32 v70,2013-03-19 13:19:00,
2013-03-19 09:25:00,29.0,29.0,30.02,West,270,0.0,0.0,100,0.00,,,0.00,Weather View 32 v70,2013-03-19 13:25:00,
2013-03-19 09:34:00,29.0,29.0,30.02,SE,135,0.0,0.0,100,0.00,,,0.00,Weather View 32 v70,2013-03-19 13:34:00,
2013-03-19 09:44:00,29.0,29.0,30.01,SE,135,0.0,0.0,100,0.00,,,0.00,Weather View 32 v70,2013-03-19 13:44:00,
2013-03-19 09:49:00,29.0,29.0,30.01,South,180,0.0,0.0,100,0.00,,,0.00,Weather View 32 v70,2013-03-19 13:49:00,
2013-03-19 09:59:00,29.0,29.0,30.01,SSW,202,0.0,0.0,100,0.00,,,0.00,Weather View 32 v70,2013-03-19 13:59:00,
2013-03-19 10:04:00,29.0,29.0,30.00,SSW,202,0.0,0.0,100,0.00,,,0.00,Weather View 32 v70,2013-03-19 14:04:00,
2013-03-19 10:14:00,29.0,29.0,30.00,SE,135,0.0,0.0,100,0.00,,,0.00,Weather View 32 v70,2013-03-19 14:14:00,
2013-03-19 10:19:00,29.0,29.0,30.00,SW,225,0.0,0.0,100,0.00,,,0.00,Weather View 32 v70,2013-03-19 14:19:00,
2013-03-19 10:29:00,29.0,29.0,29.99,SSW,202,0.0,0.0,100,0.00,,,0.00,Weather View 32 v70,2013-03-19 14:29:00,
2013-03-19 10:34:00,29.0,29.0,29.98,South,180,0.0,0.0,100,0.00,,,0.00,Weather View 32 v70,2013-03-19 14:34:00,
2013-03-19 10:44:00,29.0,29.0,29.98,SSE,158,0.0,0.0,100,0.00,,,0.00,Weather View 32 v70,2013-03-19 14:44:00,
2013-03-19 10:49:00,29.0,29.0,29.98,SSW,202,0.0,0.0,100,0.00,,,0.00,Weather View 32 v70,2013-03-19 14:49:00,
2013-03-19 10:59:00,30.0,30.0,29.97,SW,225,0.0,0.0,100,0.00,,,0.00,Weather View 32 v70,2013-03-19 14:59:00,
2013-03-19 11:04:00,30.0,30.0,29.97,SE,135,0.0,0.0,100,0.00,,,0.00,Weather View 32 v70,2013-03-19 15:04:00,
2013-03-19 11:09:00,30.0,30.0,29.97,SSE,158,0.0,0.0,100,0.00,,,0.00,Weather View 32 v70,2013-03-19 15:09:00,
2013-03-19 11:19:00,30.0,30.0,29.96,SSE,158,0.0,0.0,100,0.00,,,0.00,Weather View 32 v70,2013-03-19 15:19:00,
2013-03-19 11:25:00,29.0,29.0,29.95,West,270,0.0,0.0,100,0.00,,,0.00,Weather View 32 v70,2013-03-19 15:25:00,
2013-03-19 11:34:00,29.0,29.0,29.95,SSE,158,0.0,0.0,100,0.00,,,0.00,Weather View 32 v70,2013-03-19 15:34:00,
2013-03-19 11:44:00,30.0,30.0,29.95,SSE,158,0.0,0.0,100,0.00,,,0.00,Weather View 32 v70,2013-03-19 15:44:00,
2013-03-19 11:49:00,30.0,30.0,29.95,South,180,0.0,0.0,100,0.00,,,0.00,Weather View 32 v70,2013-03-19 15:49:00,
2013-03-19 11:59:00,30.0,30.0,29.94,SW,225,0.0,0.0,100,0.00,,,0.00,Weather View 32 v70,2013-03-19 15:59:00,
2013-03-19 12:05:00,30.0,30.0,29.94,South,180,0.0,0.0,100,0.00,,,0.00,Weather View 32 v70,2013-03-19 16:05:00,
2013-03-19 12:14:00,30.0,30.0,29.93,SSE,158,0.0,0.0,100,0.00,,,0.00,Weather View 32 v70,2013-03-19 16:14:00,
2013-03-19 12:19:00,30.0,30.0,29.92,WSW,248,0.0,0.0,100,0.00,,,0.00,Weather View 32 v70,2013-03-19 16:19:00,
2013-03-19 12:29:00,30.0,30.0,29.92,SSE,158,0.0,0.0,100,0.00,,,0.00,Weather View 32 v70,2013-03-19 16:29:00,
2013-03-19 12:39:00,31.0,31.0,29.91,WSW,248,0.0,0.0,100,0.00,,,0.00,Weather View 32 v70,2013-03-19 16:39:00,
2013-03-19 12:49:00,31.0,31.0,29.90,SSE,158,0.0,0.0,100,0.00,,,0.00,Weather View 32 v70,2013-03-19 16:49:00,
2013-03-19 12:54:00,31.0,31.0,29.89,SE,135,0.0,0.0,100,0.00,,,0.00,Weather View 32 v70,2013-03-19 16:54:00,
2013-03-19 13:04:00,31.0,31.0,29.88,SSE,158,0.0,0.0,100,0.00,,,0.00,Weather View 32 v70,2013-03-19 17:04:00,
2013-03-19 13:09:00,31.0,31.0,29.89,SE,135,0.0,0.0,100,0.00,,,0.00,Weather View 32 v70,2013-03-19 17:09:00,
2013-03-19 13:19:00,31.0,31.0,29.89,SE,135,0.0,0.0,100,0.00,,,0.00,Weather View 32 v70,2013-03-19 17:19:00,
2013-03-19 13:29:00,31.0,31.0,29.88,SE,135,0.0,0.0,100,0.00,,,0.00,Weather View 32 v70,2013-03-19 17:29:00,
2013-03-19 13:34:00,31.0,31.0,29.87,WNW,292,0.0,0.0,100,0.00,,,0.00,Weather View 32 v70,2013-03-19 17:34:00,
2013-03-19 13:44:00,31.0,31.0,29.87,SE,135,0.0,0.0,100,0.00,,,0.00,Weather View 32 v70,2013-03-19 17:44:00,
2013-03-19 13:50:00,31.0,31.0,29.86,SSW,202,0.0,0.0,100,0.00,,,0.00,Weather View 32 v70,2013-03-19 17:50:00,
2013-03-19 13:59:00,31.0,31.0,29.86,SSE,158,0.0,0.0,100,0.00,,,0.00,Weather View 32 v70,2013-03-19 17:59:00,
2013-03-19 14:10:00,31.0,31.0,29.86,South,180,0.0,0.0,100,0.00,,,0.00,Weather View 32 v70,2013-03-19 18:10:00,
2013-03-19 14:19:00,30.0,30.0,29.86,SW,225,0.0,0.0,100,0.00,,,0.00,Weather View 32 v70,2013-03-19 18:19:00,
2013-03-19 14:29:00,30.0,30.0,29.86,WNW,292,0.0,0.0,100,0.00,,,0.00,Weather View 32 v70,2013-03-19 18:29:00,
2013-03-19 14:34:00,30.0,30.0,29.86,West,270,0.0,0.0,100,0.00,,,0.00,Weather View 32 v70,2013-03-19 18:34:00,
2013-03-19 14:40:00,30.0,30.0,29.87,WNW,292,0.0,0.0,100,0.00,,,0.00,Weather View 32 v70,2013-03-19 18:40:00,
2013-03-19 14:50:00,30.0,30.0,29.87,SW,225,0.0,0.0,100,0.00,,,0.00,Weather View 32 v70,2013-03-19 18:50:00,
2013-03-19 14:59:00,30.0,30.0,29.88,South,180,0.0,0.0,100,0.00,,,0.00,Weather View 32 v70,2013-03-19 18:59:00,
2013-03-19 15:10:00,30.0,30.0,29.88,WSW,248,0.0,0.0,100,0.00,,,0.00,Weather View 32 v70,2013-03-19 19:10:00,
2013-03-19 15:19:00,30.0,30.0,29.87,SE,135,0.0,0.0,100,0.00,,,0.00,Weather View 32 v70,2013-03-19 19:19:00,
2013-03-19 15:24:00,30.0,30.0,29.86,SSW,202,0.0,0.0,100,0.00,,,0.00,Weather View 32 v70,2013-03-19 19:24:00,
2013-03-19 15:35:00,29.0,29.0,29.84,SE,135,0.0,0.0,100,0.00,,,0.00,Weather View 32 v70,2013-03-19 19:35:00,
2013-03-19 15:40:00,29.0,29.0,29.84,South,180,0.0,0.0,100,0.00,,,0.00,Weather View 32 v70,2013-03-19 19:40:00,
2013-03-19 15:49:00,29.0,29.0,29.84,SE,135,0.0,0.0,100,0.00,,,0.00,Weather View 32 v70,2013-03-19 19:49:00,
2013-03-19 15:55:00,29.0,29.0,29.83,SSE,158,0.0,0.0,100,0.00,,,0.00,Weather View 32 v70,2013-03-19 19:55:00,
2013-03-19 16:04:00,28.0,28.0,29.83,SSE,158,0.0,0.0,100,0.00,,,0.00,Weather View 32 v70,2013-03-19 20:04:00,
2013-03-19 16:15:00,27.0,27.0,29.81,SSW,202,0.0,0.0,100,0.00,,,0.00,Weather View 32 v70,2013-03-19 20:15:00,
2013-03-19 16:24:00,27.0,27.0,29.79,South,180,0.0,0.0,100,0.00,,,0.00,Weather View 32 v70,2013-03-19 20:24:00,
2013-03-19 16:29:00,27.0,27.0,29.78,WNW,292,0.0,0.0,100,0.00,,,0.00,Weather View 32 v70,2013-03-19 20:29:00,
2013-03-19 16:39:00,27.0,27.0,29.78,SE,135,0.0,0.0,100,0.00,,,0.00,Weather View 32 v70,2013-03-19 20:39:00,
2013-03-19 16:44:00,28.0,28.0,29.77,SSE,158,0.0,0.0,100,0.00,,,0.00,Weather View 32 v70,2013-03-19 20:44:00,
2013-03-19 16:52:00,28.0,28.0,29.77,SSE,158,0.0,0.0,100,0.00,,,0.00,Weather View 32 v70,2013-03-19 20:52:00,
2013-03-19 16:59:00,28.0,28.0,29.78,SW,225,0.0,0.0,100,0.00,,,0.00,Weather View 32 v70,2013-03-19 20:59:00,
2013-03-19 17:04:00,28.0,28.0,29.77,WSW,248,0.0,0.0,100,0.00,,,0.00,Weather View 32 v70,2013-03-19 21:04:00,
2013-03-19 17:15:00,27.0,27.0,29.76,SW,225,0.0,0.0,100,0.00,,,0.00,Weather View 32 v70,2013-03-19 21:15:00,
2013-03-19 17:20:00,27.0,27.0,29.76,SSW,202,0.0,0.0,100,0.00,,,0.00,Weather View 32 v70,2013-03-19 21:20:00,
2013-03-19 17:29:00,26.0,26.0,29.76,WNW,292,0.0,0.0,100,0.00,,,0.00,Weather View 32 v70,2013-03-19 21:29:00,
2013-03-19 17:39:00,26.0,26.0,29.76,SE,135,0.0,0.0,100,0.00,,,0.00,Weather View 32 v70,2013-03-19 21:39:00,
2013-03-19 17:45:00,26.0,26.0,29.76,West,270,0.0,0.0,100,0.00,,,0.00,Weather View 32 v70,2013-03-19 21:45:00,
2013-03-19 17:49:00,26.0,26.0,29.76,South,180,0.0,0.0,100,0.00,,,0.00,Weather View 32 v70,2013-03-19 21:49:00,
2013-03-19 18:00:00,26.0,26.0,29.75,WSW,248,0.0,0.0,100,0.00,,,0.00,Weather View 32 v70,2013-03-19 22:00:00,
2013-03-19 18:09:00,26.0,26.0,29.75,SSE,158,0.0,0.0,100,0.00,,,0.00,Weather View 32 v70,2013-03-19 22:09:00,
2013-03-19 18:19:00,26.0,26.0,29.75,WNW,292,0.0,0.0,100,0.00,,,0.00,Weather View 32 v70,2013-03-19 22:19:00,
2013-03-19 18:24:00,26.0,26.0,29.75,South,180,0.0,0.0,100,0.00,,,0.00,Weather View 32 v70,2013-03-19 22:24:00,
2013-03-19 18:34:00,26.0,26.0,29.75,WNW,292,0.0,0.0,100,0.00,,,0.00,Weather View 32 v70,2013-03-19 22:34:00,
2013-03-19 18:44:00,26.0,26.0,29.75,South,180,0.0,0.0,100,0.00,,,0.00,Weather View 32 v70,2013-03-19 22:44:00,
2013-03-19 18:49:00,26.0,26.0,29.75,South,180,0.0,0.0,100,0.00,,,0.00,Weather View 32 v70,2013-03-19 22:49:00,
2013-03-19 19:00:00,25.0,25.0,29.74,WNW,292,0.0,0.0,100,0.00,,,0.00,Weather View 32 v70,2013-03-19 23:00:00,
2013-03-19 19:09:00,25.0,25.0,29.74,WSW,248,0.0,0.0,100,0.00,,,0.00,Weather View 32 v70,2013-03-19 23:09:00,
2013-03-19 19:19:00,25.0,25.0,29.74,South,180,0.0,0.0,100,0.00,,,0.00,Weather View 32 v70,2013-03-19 23:19:00,
2013-03-19 19:25:00,25.0,25.0,29.74,West,270,0.0,0.0,100,0.00,,,0.00,Weather View 32 v70,2013-03-19 23:25:00,
2013-03-19 19:29:00,25.0,25.0,29.75,WNW,292,0.0,0.0,100,0.00,,,0.00,Weather View 32 v70,2013-03-19 23:29:00,
2013-03-19 19:39:00,25.0,25.0,29.74,South,180,0.0,0.0,100,0.00,,,0.00,Weather View 32 v70,2013-03-19 23:39:00,
2013-03-19 19:49:00,24.0,24.0,29.75,SE,135,0.0,0.0,100,0.00,,,0.00,Weather View 32 v70,2013-03-19 23:49:00,
2013-03-19 19:54:00,24.0,24.0,29.75,WNW,292,0.0,0.0,100,0.00,,,0.00,Weather View 32 v70,2013-03-19 23:54:00,
2013-03-19 20:04:00,24.0,24.0,29.74,WSW,248,0.0,0.0,100,0.00,,,0.00,Weather View 32 v70,2013-03-20 00:04:00,
2013-03-19 20:09:00,24.0,24.0,29.75,West,270,0.0,0.0,100,0.00,,,0.00,Weather View 32 v70,2013-03-20 00:09:00,
2013-03-19 20:14:00,24.0,24.0,29.75,WNW,292,0.0,0.0,100,0.00,,,0.00,Weather View 32 v70,2013-03-20 00:14:00,
2013-03-19 20:24:00,24.0,24.0,29.74,SSW,202,0.0,0.0,100,0.00,,,0.00,Weather View 32 v70,2013-03-20 00:24:00,
2013-03-19 20:34:00,23.0,23.0,29.75,WNW,292,0.0,0.0,100,0.00,,,0.00,Weather View 32 v70,2013-03-20 00:34:00,
2013-03-19 20:39:00,23.0,23.0,29.75,WSW,248,0.0,0.0,100,0.00,,,0.00,Weather View 32 v70,2013-03-20 00:39:00,
2013-03-19 20:49:00,23.0,23.0,29.75,SSE,158,0.0,0.0,100,0.00,,,0.00,Weather View 32 v70,2013-03-20 00:49:00,
2013-03-19 20:54:00,23.0,23.0,29.75,WNW,292,0.0,0.0,100,0.00,,,0.00,Weather View 32 v70,2013-03-20 00:54:00,
2013-03-19 21:05:00,23.0,23.0,29.74,SSW,202,0.0,0.0,100,0.00,,,0.00,Weather View 32 v70,2013-03-20 01:05:00,
2013-03-19 21:14:00,23.0,23.0,29.75,WSW,248,0.0,0.0,100,0.00,,,0.00,Weather View 32 v70,2013-03-20 01:14:00,
2013-03-19 21:24:00,22.0,22.0,29.74,WSW,248,0.0,0.0,100,0.00,,,0.00,Weather View 32 v70,2013-03-20 01:24:00,
2013-03-19 21:30:00,22.0,22.0,29.75,SW,225,0.0,0.0,100,0.00,,,0.00,Weather View 32 v70,2013-03-20 01:30:00,
2013-03-19 21:39:00,22.0,22.0,29.76,West,270,0.0,0.0,100,0.00,,,0.00,Weather View 32 v70,2013-03-20 01:39:00,
2013-03-19 21:49:00,22.0,22.0,29.76,WNW,292,0.0,0.0,100,0.00,,,0.00,Weather View 32 v70,2013-03-20 01:49:00,
2013-03-19 21:55:00,22.0,22.0,29.75,SW,225,0.0,0.0,100,0.00,,,0.00,Weather View 32 v70,2013-03-20 01:55:00,
2013-03-19 22:04:00,22.0,22.0,29.75,SSE,158,0.0,0.0,100,0.00,,,0.00,Weather View 32 v70,2013-03-20 02:04:00,
2013-03-19 22:10:00,22.0,22.0,29.74,SSW,202,0.0,0.0,100,0.00,,,0.00,Weather View 32 v70,2013-03-20 02:10:00,
2013-03-19 22:19:00,22.0,22.0,29.74,WNW,292,0.0,0.0,100,0.00,,,0.00,Weather View 32 v70,2013-03-20 02:19:00,
2013-03-19 22:24:00,22.0,22.0,29.74,WSW,248,0.0,0.0,100,0.00,,,0.00,Weather View 32 v70,2013-03-20 02:24:00,
2013-03-19 22:35:00,22.0,22.0,29.75,WSW,248,0.0,0.0,100,0.00,,,0.00,Weather View 32 v70,2013-03-20 02:35:00,
2013-03-19 22:39:00,22.0,22.0,29.74,SW,225,0.0,0.0,100,0.00,,,0.00,Weather View 32 v70,2013-03-20 02:39:00,
2013-03-19 22:49:00,22.0,22.0,29.74,WSW,248,0.0,0.0,100,0.00,,,0.00,Weather View 32 v70,2013-03-20 02:49:00,
2013-03-19 22:54:00,22.0,22.0,29.74,West,270,0.0,0.0,100,0.00,,,0.00,Weather View 32 v70,2013-03-20 02:54:00,
2013-03-19 22:59:00,22.0,22.0,29.74,South,180,0.0,0.0,100,0.00,,,0.00,Weather View 32 v70,2013-03-20 02:59:00,
2013-03-19 23:09:00,22.0,22.0,29.74,South,180,0.0,0.0,100,0.00,,,0.00,Weather View 32 v70,2013-03-20 03:09:00,
2013-03-19 23:14:00,22.0,22.0,29.74,West,270,0.0,0.0,100,0.00,,,0.00,Weather View 32 v70,2013-03-20 03:14:00,
2013-03-19 23:24:00,22.0,22.0,29.73,SW,225,0.0,0.0,100,0.00,,,0.00,Weather View 32 v70,2013-03-20 03:24:00,
2013-03-19 23:35:00,22.0,22.0,29.73,WSW,248,0.0,0.0,100,0.00,,,0.00,Weather View 32 v70,2013-03-20 03:35:00,
2013-03-19 23:41:00,22.0,22.0,29.73,WSW,248,0.0,0.0,100,0.00,,,0.00,Weather View 32 v70,2013-03-20 03:41:00,
2013-03-19 23:49:00,22.0,22.0,29.73,South,180,0.0,0.0,100,0.00,,,0.00,Weather View 32 v70,2013-03-20 03:49:00,
2013-03-19 23:59:00,22.0,22.0,29.73,WSW,248,0.0,0.0,100,0.00,,,0.00,Weather View 32 v70,2013-03-20 03:59:00,